This is the latest recevied weather packets stored in our database for station/object VE2XOX. If no packets are shown the sender has not sent any weather packets the latest 10 day(s).
| Time | Temp. | Humidity | Pressure | Rain* | Wind** | Luminosity | Snow |
|---|---|---|---|---|---|---|---|
| 1777605328 | 7.78° C | 91% | 1005.4 hPa | 4.06 mm | - | - | - |
| 1777605015 | 8.33° C | 91% | 1005.4 hPa | 4.06 mm | - | - | - |
| 1777604728 | 8.33° C | 91% | 1005.5 hPa | 4.06 mm | - | - | - |
| 1777604412 | 8.33° C | 91% | 1005.5 hPa | 5.08 mm | - | - | - |
| 1777604117 | 8.33° C | 91% | 1005.6 hPa | 5.08 mm | - | - | - |
| 1777603835 | 8.33° C | 91% | 1005.6 hPa | 5.08 mm | - | - | - |
| 1777603522 | 8.33° C | 91% | 1005.6 hPa | 6.1 mm | - | - | - |
| 1777603225 | 8.33° C | 91% | 1005.6 hPa | 5.08 mm | - | - | - |
| 1777602936 | 8.33° C | 91% | 1005.6 hPa | 6.1 mm | - | - | - |
| 1777602621 | 8.33° C | 91% | 1005.7 hPa | 5.08 mm | - | - | - |
| 1777602326 | 8.33° C | 91% | 1005.8 hPa | 6.1 mm | - | - | - |
| 1777602035 | 8.33° C | 91% | 1005.8 hPa | 6.1 mm | - | - | - |
| 1777587018 | 9.44° C | 91% | 1005.1 hPa | 7.87 mm | - | - | - |
| 1777586421 | 9.44° C | 91% | 1005.1 hPa | 7.87 mm | - | - | - |
| 1777585517 | 9.44° C | 91% | 1005.2 hPa | 7.11 mm | - | - | - |
| 1777584934 | 9.44° C | 91% | 1005.2 hPa | 7.11 mm | - | - | - |
| 1777584619 | 9.44° C | 91% | 1005.3 hPa | 7.11 mm | - | - | - |
| 1777584325 | 9.44° C | 91% | 1005.3 hPa | 6.1 mm | - | - | - |
| 1777583719 | 9.44° C | 91% | 1005.2 hPa | 6.1 mm | - | - | - |
| 1777583112 | 9.44° C | 91% | 1005.2 hPa | 5.08 mm | - | - | - |
| 1777582821 | 9.44° C | 91% | 1005.2 hPa | 5.08 mm | - | - | - |
| 1777581628 | 9.44° C | 91% | 1005.2 hPa | 4.06 mm | - | - | - |
| 1777581312 | 9.44° C | 91% | 1005.1 hPa | 4.06 mm | - | - | - |
| 1777581021 | 9.44° C | 91% | 1005.2 hPa | 5.08 mm | - | - | - |
| 1777580126 | 9.44° C | 91% | 1005.2 hPa | 4.06 mm | - | - | - |
* Rain latest hour (hover to see other rain measurements)
** Current wind speed in m/s (hover to see current wind gust speed)